Starlink 11467

operational
NORAD ID: 62068 Int'l Des: 2024-217 Owner: SPXS Country: US Constellation: starlink
LEOCIRCULAR

关于 Starlink 11467

正在加载描述...

实时位置

正在加载3D地球...

即将过境

高度历史

Altitude vs Time

uPlot chart will show altitude changes over time

两行轨道根数

1 62068U 24217M 25308.57203902 .00350974 00000-0 27726-2 0 9998
2 62068 53.1569 327.9480 0002438 58.3865 301.7390 15.69783298 55526
Epoch: Nov 4, 2025 • Age: 18 hours

当前状态

高度 370.2 km
速度 7.69 km/s
星下点 -36.30°S, 128.33°E
发射日期 Nov 24, 2024
运行时间 0.9 years
类型 internet

技术详情

分类 Payload
质量 960.00 kg
干质量 910.00 kg
总质量 960.00 kg
长度 0.30 m
直径 4.10 m
跨度 29.00 m
形状 Box + pan
制造商 SPXS
平台类型 Starlink V2MD
阶段状态 In Orbit
所有者/国家 SPXS/US

大型星座

Loading constellations...